GLOBALSTAR M001 1 25162U 98008A 10210.74718236 -.00000084 00000-0 10000-3 0 6245 2 25162 052.0058 312.9713 0000920 068.2904 291.8036 12.38002573570422 GLOBALSTAR M004 1 25163U 98008B 10210.78703061 -.00000086 +00000-0 +10000-3 0 06792 2 25163 051.9992 075.6586 0003898 118.2459 241.8798 12.63162083574691 GLOBALSTAR M002 1 25164U 98008C 10210.87909071 -.00000071 00000-0 10000-3 0 5683 2 25164 051.9983 189.7261 0000721 316.8331 043.2427 11.61427384552454 GLOBALSTAR M003 1 25165U 98008D 10210.76035179 -.00000080 +00000-0 +10000-3 0 06952 2 25165 051.9975 104.2847 0004645 155.5092 204.5962 12.11926676574138 GLOBALSTAR M014 1 25306U 98023A 10210.53264482 -.00000072 +00000-0 +10000-3 0 05648 2 25306 051.9829 227.9225 0000205 020.0863 339.9972 11.66998964557308 GLOBALSTAR M006 1 25307U 98023B 10210.76776508 -.00000086 +00000-0 +10000-3 0 03936 2 25307 051.9967 129.1349 0001087 043.0257 317.0692 12.62259583565694 GLOBALSTAR M015 1 25308U 98023C 10210.76535660 -.00000086 +00000-0 +10000-3 0 04019 2 25308 051.9951 128.6544 0001237 048.8373 311.2590 12.62258947565694 GLOBALSTAR M008 1 25309U 98023D 10210.77342962 -.00000085 +00000-0 +10000-3 0 03762 2 25309 051.9939 138.6699 0000694 048.6297 311.4617 12.50246542565521 GLOBALSTAR M023 1 25621U 99004A 10210.69506805 -.00000086 +00000-0 +10000-3 0 03703 2 25621 052.0118 043.1268 0009176 359.3683 000.7174 12.62228062529218 GLOBALSTAR M040 1 25622U 99004B 10210.85123145 -.00000086 +00000-0 +10000-3 0 02231 2 25622 051.9933 038.7801 0000578 143.8442 216.2441 12.61711861529237 GLOBALSTAR M036 1 25623U 99004C 10211.75271721 -.00000086 00000-0 10000-3 0 3170 2 25623 052.0006 036.9577 0001203 125.6469 234.4503 12.62258042529389 GLOBALSTAR M038 1 25624U 99004D 10210.76906229 -.00000085 00000-0 10000-3 0 3178 2 25624 052.0023 356.9140 0001545 148.0041 212.0907 12.53875209529980 GLOBALSTAR M022 1 25649U 99012A 10210.74386522 -.00000079 +00000-0 +10000-3 0 02778 2 25649 052.0066 307.9302 0001676 206.2709 153.8045 12.02415686522467 GLOBALSTAR M041 1 25650U 99012B 10210.88039986 -.00000083 +00000-0 +10000-3 0 03286 2 25650 052.0025 189.0345 0000787 316.0700 044.0084 12.33143169524603 GLOBALSTAR M046 1 25651U 99012C 10210.85936450 -.00000086 00000-0 10000-3 0 3302 2 25651 052.0011 174.5226 0000955 249.4371 110.6394 12.62260371524810 GLOBALSTAR M037 1 25652U 99012D 10210.40386137 -.00000086 +00000-0 +10000-3 0 03057 2 25652 052.0012 177.0264 0000723 056.1539 303.9395 12.62266403524724 GLOBALSTAR M045 1 25676U 99019A 10210.83680387 -.00000086 00000-0 10000-3 0 4298 2 25676 051.9932 173.5198 0000811 076.0556 284.0401 12.62272189522378 GLOBALSTAR M019 1 25677U 99019B 10210.49888389 -.00000083 +00000-0 +10000-3 0 03222 2 25677 051.9911 225.1621 0000366 243.1619 116.9200 12.36927899522177 GLOBALSTAR M044 1 25678U 99019C 10210.48997198 -.00000093 00000-0 00000+0 0 3160 2 25678 051.9985 219.9690 0000188 099.0798 261.0075 12.26492041520898 GLOBALSTAR M042 1 25679U 99019D 10211.71774967 -.00000082 00000-0 10000-3 0 4125 2 25679 052.0020 273.8863 0000826 235.7086 124.3679 12.22008809520791 GLOBALSTAR M025 1 25770U 99031A 10210.51528416 -.00000086 +00000-0 +10000-3 0 02687 2 25770 051.9945 219.9075 0000875 202.4909 157.5920 12.62271210513603 GLOBALSTAR M049 1 25771U 99031B 10210.62975798 -.00000062 00000-0 10000-3 0 4607 2 25771 051.9900 274.4933 0000965 118.8647 241.2246 11.12074551512584 GLOBALSTAR M047 1 25772U 99031C 10211.50505864 -.00000086 00000-0 10000-3 0 3468 2 25772 051.9943 216.4734 0000806 211.8007 148.2811 12.62271565513737 GLOBALSTAR M052 1 25773U 99031D 10210.53484111 -.00000086 +00000-0 +10000-3 0 09806 2 25773 051.9897 218.1480 0000828 089.5865 270.5098 12.62268652513615 GLOBALSTAR M035 1 25851U 99037A 10210.69428535 -.00000061 +00000-0 +10000-3 0 08918 2 25851 051.9979 298.1815 0014338 172.4348 187.6663 11.04480145495569 GLOBALSTAR M032 1 25852U 99037B 10210.66625662 -.00000086 +00000-0 +10000-3 0 02456 2 25852 052.0023 264.8898 0000637 100.5413 259.5524 12.62257278509863 GLOBALSTAR M051 1 25853U 99037C 10211.63589544 -.00000086 00000-0 10000-3 0 2576 2 25853 052.0006 261.8229 0001390 120.0145 240.0860 12.62258480509983 GLOBALSTAR M030 1 25854U 99037D 10210.62643660 -.00000086 +00000-0 +10000-3 0 02531 2 25854 052.0018 265.2043 0001081 161.1515 198.9392 12.62271620509851 GLOBALSTAR M048 1 25872U 99041A 10210.77778210 -.00000086 00000-0 10000-3 0 3005 2 25872 052.0080 310.9481 0001619 129.5169 230.5845 12.62256490507609 GLOBALSTAR M026 1 25873U 99041B 10211.43045928 -.00000086 00000-0 10000-3 0 2798 2 25873 052.0094 309.1053 0001854 065.4094 294.6598 12.62267385508079 GLOBALSTAR M043 1 25874U 99041C 10210.75531151 -.00000086 +00000-0 +10000-3 0 02847 2 25874 052.0073 311.0739 0001137 110.7737 249.3245 12.62270211507989 GLOBALSTAR M028 1 25875U 99041D 10210.73809012 -.00000086 +00000-0 +10000-3 0 02615 2 25875 052.0070 310.8279 0001695 116.1701 243.9336 12.62261120507983 GLOBALSTAR M024 1 25883U 99043A 10210.74793009 -.00000086 +00000-0 +10000-3 0 02749 2 25883 052.0090 356.9437 0001797 099.8282 260.2782 12.62257131505101 GLOBALSTAR M027 1 25884U 99043B 10210.73063782 -.00000086 +00000-0 +10000-3 0 02534 2 25884 052.0095 356.9188 0001381 080.0861 280.0148 12.62258096505101 GLOBALSTAR M054 1 25885U 99043C 10210.68116315 -.00000068 +00000-0 +10000-3 0 02192 2 25885 052.0070 289.9090 0005748 129.3371 230.7879 11.40728250499807 GLOBALSTAR M053 1 25886U 99043D 10210.77003708 -.00000086 +00000-0 +10000-3 0 02712 2 25886 052.0099 356.8172 0000500 144.0517 216.0376 12.62259105505115 GLOBALSTAR M058 1 25907U 99049A 10210.78429059 -.00000082 00000-0 10000-3 0 2664 2 25907 051.9980 011.8363 0001895 118.7519 241.3514 12.24218270501043 GLOBALSTAR M050 1 25908U 99049B 10210.62684555 -.00000079 +00000-0 +10000-3 0 02163 2 25908 052.0011 277.9343 0007822 358.7480 001.3333 12.07313599496220 GLOBALSTAR M033 1 25909U 99049C 10211.77986550 -.00000086 00000-0 10000-3 0 2574 2 25909 052.0000 351.2483 0001398 074.8851 285.2166 12.62254911501474 GLOBALSTAR M055 1 25910U 99049D 10210.68102383 -.00000083 +00000-0 +10000-3 0 02677 2 25910 052.0028 080.0192 0018045 007.5715 352.5394 12.31585107499869 GLOBALSTAR M057 1 25943U 99058A 10210.27257858 -.00000086 +00000-0 +10000-3 0 05021 2 25943 051.9998 131.0701 0002384 034.3886 325.7135 12.62267087497241 GLOBALSTAR M059 1 25944U 99058B 10210.80694987 -.00000086 +00000-0 +10000-3 0 02408 2 25944 052.0040 130.0802 0001332 351.5420 008.5411 12.62269728497330 GLOBALSTAR M056 1 25945U 99058C 10210.61674588 -.00000086 +00000-0 +10000-3 0 05811 2 25945 051.9976 084.3777 0000245 102.8099 257.2798 12.62259148498045 GLOBALSTAR M031 1 25946U 99058D 10211.94278968 -.00001406 00000-0 10000-3 0 2668 2 25946 051.9960 080.6756 0002944 039.8654 320.3021 12.62255139498237 GLOBALSTAR M039 1 25961U 99062A 10210.60466907 -.00000086 +00000-0 +10000-3 0 05413 2 25961 051.9950 263.7765 0001799 157.3367 202.7578 12.62263340493688 GLOBALSTAR M034 1 25962U 99062B 10210.80203315 -.00000081 +00000-0 +10000-3 0 01240 2 25962 051.9955 329.7868 0000742 121.8518 238.2407 12.15637246492561 GLOBALSTAR M029 1 25963U 99062C 10210.84202947 -.00000086 00000-0 10000-3 0 5637 2 25963 051.9937 038.1492 0001956 082.3157 277.7923 12.62258672503427 GLOBALSTAR M061 1 25964U 99062D 10210.52707524 -.00000074 +00000-0 +10000-3 0 02290 2 25964 051.9764 214.2071 0006132 183.8040 176.2742 11.76687821481440 GLOBALSTAR M063 1 26081U 00008A 10211.66535894 -.00000086 00000-0 10000-3 0 3180 2 26081 051.9985 081.6137 0000584 072.0825 288.0105 12.62253705491565 GLOBALSTAR M062 1 26082U 00008B 10210.57268684 -.00000085 +00000-0 +10000-3 0 02144 2 26082 052.0047 240.4720 0001562 175.5064 184.5810 12.46514285482794 GLOBALSTAR M060 1 26083U 00008C 10210.80020271 -.00000081 +00000-0 +10000-3 0 03135 2 26083 052.0020 150.4236 0001401 302.5836 057.4870 12.17662078490312 GLOBALSTAR M064 1 26084U 00008D 10210.65605739 -.00000086 +00000-0 +10000-3 0 05280 2 26084 052.0054 086.2026 0001416 061.6547 298.4438 12.62265419509395 GLOBALSTAR M065 1 31571U 07020A 10210.49516992 -.00000070 +00000-0 +18908-3 0 09813 2 31571 051.9901 220.0483 0000733 082.4991 277.5966 12.62256736147159 GLOBALSTAR M069 1 31573U 07020C 10210.91860903 -.00000086 +00000-0 +10000-3 0 04981 2 31573 051.9930 173.9400 0001408 049.6460 310.4526 12.62264361147943 GLOBALSTAR M072 1 31574U 07020D 10210.64624807 -.00000070 00000-0 18641-3 0 9777 2 31574 052.0089 265.9811 0001585 119.1964 240.9061 12.62274741146412 GLOBALSTAR M071 1 31576U 07020F 10210.89856324 -.00000086 +00000-0 +10000-3 0 05175 2 31576 052.0046 174.8470 0000925 074.2612 285.8351 12.62267862147938 GLOBALSTAR M067 1 32263U 07048A 10210.66340128 -.00000104 +00000-0 +00000-0 0 09322 2 32263 051.9757 038.4990 0001136 110.4349 249.6639 12.62256963129595 GLOBALSTAR M070 1 32264U 07048B 10210.78740858 -.00000086 +00000-0 +10000-3 0 08827 2 32264 051.9766 128.6136 0001066 080.7713 279.3268 12.62261452128097 GLOBALSTAR M066 1 32265U 07048C 10210.78959436 -.00000104 00000-0 00000+0 0 9391 2 32265 051.9700 353.0215 0000627 100.8505 259.2427 12.62257102130323 GLOBALSTAR M068 1 32266U 07048D 10210.75752274 -.00000086 +00000-0 +10000-3 0 09484 2 32266 051.9874 309.3439 0000784 102.9885 257.1069 12.62258475131083